[[{"header":{"parameterUnit":"m.s-1","parameterCategory":2,"la1":30.2991,"la2":30.254,"lo1":-89.0895,"lo2":-89.0444,"dy":0.0017,"dx":0.0017,"nx":28,"ny":28,"refTime":"2023-10-02T09:00:00:Z","depth":"0","parameterNumber":2,"parameterNumberName":"U-component_of_CURRENTS"},"data":[0,0,0,0,0,0,0,0,0,0,0,0,0,0,0,0,0,0,0,0,0,0,0,0,0,0,0,0,0,0,0,0,0,0,0,0,0,0,0,0,0,0,0,0,0,0,0,0,0,0,0,0,0,0,0,0,0,0,-0.197,-0.197,0,-0.1989,-0.1989,-0.1988,-0.1954,-0.1953,-0.1953,-0.1952,-0.1901,-0.19,-0.1899,0,0,0,0,0,0,0,0,0,0,0,0,0,-0.1823,-0.1826,-0.197,-0.197,-0.1971,-0.1989,-0.1989,-0.1988,-0.1954,-0.1953,-0.1953,-0.1952,-0.1901,-0.19,-0.1899,0,0,0,0,0,0,0,0,0,0,0,0,0,-0.1864,-0.1827,-0.197,-0.196,-0.196,-0.1989,-0.1988,-0.1988,-0.1954,-0.1953,-0.1952,-0.1951,-0.1901,-0.19,-0.1899,-0.1911,0,0,-0.1896,-0.1895,0,0,0,0,0,0,0,0,-0.1861,-0.1868,-0.1961,-0.1961,-0.1961,-0.1973,-0.1918,-0.1961,-0.1954,-0.195,-0.1952,-0.1951,-0.1923,-0.192,-0.1919,-0.1908,-0.1906,-0.1896,-0.1895,-0.1894,-0.1894,0,0,0,0,0,0,0,-0.1859,-0.1867,-0.1971,-0.1962,-0.1962,-0.1928,-0.1933,-0.1926,-0.1936,-0.1951,-0.195,-0.1961,-0.1921,-0.192,-0.1917,-0.1906,-0.1896,-0.1895,-0.1894,-0.1893,-0.1909,-0.191,0,0,0,0,0,0,-0.1874,-0.1865,-0.1971,-0.1973,-0.1914,-0.1932,-0.1937,-0.1965,-0.1938,-0.1935,-0.1962,-0.196,-0.1922,-0.1918,-0.1915,-0.1947,-0.1894,-0.1893,-0.1893,-0.1908,-0.1909,-0.191,0,0,0,0,0,0,-0.1871,-0.1884,-0.197,-0.1922,-0.1932,-0.1937,-0.1968,-0.1966,-0.1966,-0.1948,-0.1942,-0.1964,-0.1921,-0.1917,-0.1916,-0.1944,-0.1893,-0.1892,-0.1907,-0.1908,-0.191,-0.1998,0,0,0,0,0,0,-0.1867,-0.1883,-0.1901,-0.1924,-0.1935,-0.2,-0.197,-0.1968,-0.1978,-0.1974,-0.1948,-0.1942,-0.192,-0.1918,-0.1915,-0.1941,-0.1891,-0.1905,-0.1907,-0.1909,-0.1994,-0.2003,-0.2011,0,0,0,0,0,-0.1862,-0.19,-0.1902,-0.1914,-0.1963,-0.2002,-0.2004,-0.1999,-0.1979,-0.1991,-0.1969,-0.1943,-0.1929,-0.1919,-0.1914,-0.1941,-0.1904,-0.1907,-0.1909,-0.199,-0.2001,-0.201,0,0,0,0,0,0,-0.1845,-0.1901,-0.1904,-0.1956,-0.1982,-0.1998,-0.2011,-0.2006,-0.1999,-0.1988,-0.1958,-0.1952,-0.196,-0.1939,-0.1928,-0.1951,-0.1912,-0.1914,-0.1976,-0.1985,-0.1993,-0.2013,-0.189,0,0,0,0,0,-0.1853,-0.1896,-0.1935,-0.1976,-0.1991,-0.1999,-0.201,-0.2011,-0.2014,-0.2009,-0.1992,-0.1973,-0.1969,-0.1967,-0.1954,-0.1971,-0.1966,-0.1985,-0.1993,-0.2,-0.2014,-0.2034,-0.2046,-0.1919,-0.1919,-0.1919,0,0,-0.1857,-0.1895,-0.1917,-0.1975,-0.1988,-0.2026,-0.2002,-0.2031,-0.2057,-0.2005,-0.2022,-0.1998,-0.1977,-0.1994,-0.1996,-0.1981,-0.2035,-0.2003,-0.201,-0.2019,-0.2038,-0.2051,-0.2062,-0.192,-0.192,-0.192,0,0,-0.1888,-0.1922,-0.1962,-0.1994,-0.2032,-0.2045,-0.2057,-0.2078,-0.2081,-0.2099,-0.2068,-0.2067,-0.2053,-0.2055,-0.2051,-0.2099,-0.2073,-0.2088,-0.2153,-0.2173,-0.2184,-0.2194,-0.221,-0.2221,-0.2098,-0.2098,-0.2098,0,-0.1882,-0.1955,-0.1977,-0.2025,-0.2061,-0.2059,-0.2107,-0.2117,-0.2132,-0.2151,-0.2113,-0.2116,-0.2089,-0.213,-0.2138,-0.212,-0.2122,-0.2118,-0.2186,-0.2195,-0.2204,-0.2218,-0.2228,-0.2103,-0.2102,-0.2102,-0.2101,0,-0.1944,-0.2002,-0.2031,-0.2097,-0.213,-0.2177,-0.2204,-0.2226,-0.2221,-0.2232,-0.2259,-0.2224,-0.2225,-0.222,-0.2189,-0.2242,-0.2221,-0.2191,-0.2165,-0.2222,-0.2233,-0.2242,-0.2109,-0.2108,-0.2106,-0.2105,0,0,-0.1935,-0.2052,-0.2062,-0.2122,-0.2179,-0.2226,-0.2269,-0.2329,-0.2378,-0.2362,-0.2418,-0.2394,-0.2364,-0.2358,-0.2323,-0.2341,-0.2391,-0.2293,-0.2292,-0.2317,-0.2439,-0.2322,-0.232,-0.2372,-0.2374,-0.2376,-0.2425,0,-0.1976,-0.2095,-0.2133,-0.2243,-0.2313,-0.2339,-0.2395,-0.2441,-0.2458,-0.2507,-0.248,-0.25,-0.2421,-0.2418,-0.2424,-0.2396,-0.2418,-0.2381,-0.2373,-0.2373,-0.2268,-0.2328,-0.2241,-0.2267,-0.2434,-0.2435,-0.2436,0,-0.2012,-0.2109,-0.2224,-0.2362,-0.2392,-0.2444,-0.2551,-0.2595,-0.2649,-0.2655,-0.2659,-0.2631,-0.2638,-0.256,-0.2552,-0.253,-0.2493,-0.2472,-0.2472,-0.2339,-0.2273,-0.2234,-0.2277,-0.2257,-0.245,-0.2449,-0.2448,0,-0.2023,-0.2164,-0.2271,-0.2317,-0.2461,-0.2514,-0.2571,-0.2642,-0.2684,-0.2737,-0.2753,-0.2763,-0.2735,-0.2716,-0.2601,-0.26,-0.2586,-0.2581,-0.2454,-0.2446,-0.2357,-0.2336,-0.2383,-0.26,-0.26,-0.26,-0.2599,0,-0.2058,-0.2149,-0.2291,-0.2367,-0.2496,-0.2561,-0.2667,-0.2721,-0.2777,-0.2807,-0.2812,-0.2799,-0.2767,-0.2724,-0.2662,-0.2554,-0.2623,-0.2481,-0.2455,-0.2383,-0.2365,-0.2327,-0.2338,-0.2601,-0.2601,-0.2601,-0.26,0,-0.2055,-0.2139,-0.229,-0.2462,-0.2509,-0.2597,-0.2704,-0.2758,-0.2812,-0.2841,-0.2846,-0.2836,-0.2767,-0.2717,-0.2671,-0.2597,-0.2488,-0.2478,-0.2381,-0.2342,-0.2224,-0.2243,-0.2241,-0.2181,-0.2411,-0.2408,-0.2406,0,-0.2059,-0.2146,-0.2353,-0.2408,-0.2484,-0.2602,-0.2658,-0.2755,-0.2781,-0.2819,-0.281,-0.278,-0.2678,-0.2578,-0.2485,-0.24,-0.2373,-0.2272,-0.2254,-0.2216,-0.2221,-0.2223,-0.2173,-0.2189,-0.2185,-0.2182,-0.2179,0,-0.21,-0.2176,-0.2293,-0.2401,-0.2479,-0.257,-0.2645,-0.2664,-0.2723,-0.2718,-0.2638,-0.2571,-0.25,-0.2351,-0.226,-0.2192,-0.2222,-0.2205,-0.2208,-0.2087,-0.2054,-0.1981,-0.2161,-0.2152,-0.2155,-0.2157,-0.2158,-0.2159,-0.2103,-0.2171,-0.2283,-0.2367,-0.2438,-0.2448,-0.2436,-0.247,-0.2445,-0.2361,-0.2409,-0.2277,-0.2262,-0.2116,-0.2053,-0.1956,-0.2009,-0.1916,-0.1957,-0.1974,-0.1867,-0.1968,-0.1887,-0.1889,-0.189,-0.189,-0.1891,0,-0.2064,-0.2129,-0.2216,-0.2281,-0.2266,-0.2341,-0.2347,-0.2259,-0.2121,-0.2129,-0.2023,-0.1987,-0.1879,-0.1891,-0.1827,-0.1747,-0.1721,-0.1704,-0.1729,-0.17,-0.1831,-0.1767,-0.1602,-0.1602,-0.1603,-0.1603,-0.1603,-0.1603,-0.2038,-0.2082,-0.2118,-0.2065,-0.2075,-0.1962,-0.1903,-0.1793,-0.1753,-0.1604,-0.16,-0.1663,-0.1709,-0.1842,-0.1747,-0.1664,-0.1636,-0.1566,-0.1589,-0.1727,-0.1751,-0.1775,-0.1718,-0.1546,-0.1546,-0.14,-0.1399,-0.1399]},{"header":{"parameterUnit":"m.s-1","parameterCategory":2,"la1":30.2991,"la2":30.254,"lo1":-89.0895,"lo2":-89.0444,"dy":0.0017,"dx":0.0017,"nx":28,"ny":28,"refTime":"2023-10-02T09:00:00:Z","depth":"0","parameterNumber":3,"parameterNumberName":"V-component_of_CURRENTS"},"data":[0,0,0,0,0,0,0,0,0,0,0,0,0,0,0,0,0,0,0,0,0,0,0,0,0,0,0,0,0,0,0,0,0,0,0,0,0,0,0,0,0,0,0,0,0,0,0,0,0,0,0,0,0,0,0,0,0,0,-0.0067,-0.0066,0,-0.0011,-0.001,-0.0009,0.0043,0.0044,0.0044,0.0044,0.0159,0.0162,0.0165,0,0,0,0,0,0,0,0,0,0,0,0,0,-0.0021,-0.0023,-0.0067,-0.0066,-0.0066,-0.0011,-0.001,-0.0009,0.0043,0.0044,0.0044,0.0044,0.0158,0.0162,0.0165,0,0,0,0,0,0,0,0,0,0,0,0,0,-0.0007,-0.0023,-0.0067,-0.0036,-0.0034,-0.0011,-0.001,-0.0008,0.0043,0.0044,0.0044,0.0044,0.0157,0.0161,0.0165,0.0184,0,0,0.0178,0.018,0,0,0,0,0,0,0,0,-0.0008,-0.0008,-0.0041,-0.0039,-0.0035,0.0006,0.0048,0.0057,0.0043,0.0019,0.0044,0.0045,0.011,0.0118,0.0133,0.0189,0.0194,0.0179,0.0181,0.0183,0.0184,0,0,0,0,0,0,0,-0.0009,-0.001,-0.004,-0.0041,-0.0037,0.0011,0.0012,0.0051,0.0066,0.0021,0.0024,0.0023,0.0113,0.0129,0.0136,0.0196,0.0179,0.0182,0.0185,0.0187,0.031,0.031,0,0,0,0,0,0,-0.0031,-0.0012,-0.0042,-0.0039,-0.0025,0.0009,0.0011,-0.0004,0.0064,0.0073,0.0023,0.0025,0.0122,0.0131,0.0141,0.0183,0.0183,0.0187,0.0189,0.0309,0.031,0.0311,0,0,0,0,0,0,-0.0031,-0.0035,-0.0044,-0.0026,-0.0024,0.0006,-0.001,-0.0003,0.0013,0.0064,0.0076,0.003,0.0122,0.0135,0.018,0.0187,0.0189,0.0193,0.0308,0.0309,0.031,0.0257,0,0,0,0,0,0,-0.003,-0.0035,-0.0049,-0.0028,-0.0027,-0.0039,-0.0011,-0.0003,0.0009,0.0014,0.0075,0.0086,0.0124,0.0173,0.0184,0.0193,0.0196,0.0307,0.0309,0.031,0.0257,0.0256,0.0254,0,0,0,0,0,-0.0028,-0.0055,-0.005,-0.0053,-0.0049,-0.004,-0.0034,-0.0006,0.0009,0.0011,0.006,0.0084,0.019,0.0177,0.019,0.02,0.0307,0.0308,0.031,0.0258,0.0256,0.0254,0,0,0,0,0,0,-0.0044,-0.0052,-0.0046,-0.0075,-0.0061,-0.0033,-0.0031,-0.0011,0.0029,0.0035,0.0091,0.0105,0.0148,0.0183,0.0167,0.0242,0.0254,0.0258,0.021,0.0209,0.0207,0.0187,0.02,0,0,0,0,0,-0.0056,-0.0076,-0.0069,-0.0089,-0.0088,-0.0058,-0.005,-0.0034,-0.0001,0.0016,0.0059,0.0112,0.0164,0.0192,0.0236,0.0274,0.0296,0.0291,0.029,0.0288,0.0282,0.0316,0.0316,0.0316,0.0316,0.0316,0,0,-0.0068,-0.0075,-0.0085,-0.0093,-0.0079,-0.0085,-0.0051,-0.0048,-0.0036,0.0023,0.0055,0.0104,0.0173,0.0217,0.0239,0.0247,0.0301,0.029,0.0288,0.0283,0.0317,0.0317,0.0317,0.0317,0.0317,0.0317,0,0,-0.0104,-0.0108,-0.0136,-0.013,-0.0125,-0.0105,-0.0108,-0.0084,-0.0055,-0.0021,0.0031,0.0082,0.0152,0.0204,0.0242,0.0259,0.0288,0.0276,0.0255,0.0288,0.0287,0.0287,0.0313,0.0316,0.0279,0.0279,0.0279,0,-0.0117,-0.0156,-0.0139,-0.016,-0.0161,-0.012,-0.0141,-0.0104,-0.0063,-0.0036,-0.0018,0.0094,0.0148,0.0216,0.0226,0.0254,0.0272,0.0253,0.0283,0.0283,0.0284,0.0311,0.0314,0.0276,0.0277,0.0277,0.0277,0,-0.017,-0.0198,-0.0212,-0.0227,-0.0218,-0.0231,-0.0189,-0.0164,-0.0124,-0.0084,-0.0016,0.006,0.0126,0.0158,0.0202,0.0243,0.0253,0.027,0.0279,0.028,0.0309,0.0314,0.0273,0.0274,0.0274,0.0275,0,0,-0.0211,-0.0246,-0.025,-0.0275,-0.0258,-0.0263,-0.0229,-0.0193,-0.0178,-0.0106,-0.0073,0.0033,0.0071,0.0117,0.0178,0.0216,0.0243,0.0241,0.0244,0.0251,0.0306,0.0344,0.0353,0.0259,0.0259,0.026,0.0322,0,-0.0259,-0.0329,-0.0316,-0.0361,-0.0395,-0.0339,-0.0318,-0.0269,-0.0212,-0.0167,-0.0058,-0.0005,0.0059,0.0087,0.0137,0.0216,0.0253,0.0224,0.0318,0.032,0.0341,0.0359,0.0407,0.047,0.0327,0.0328,0.0328,0,-0.0309,-0.0358,-0.0423,-0.0449,-0.0455,-0.0457,-0.0423,-0.0396,-0.03,-0.0252,-0.0168,-0.0092,0.0004,0.0044,0.0175,0.015,0.0221,0.028,0.0284,0.034,0.0367,0.0449,0.0484,0.0622,0.0336,0.0335,0.0335,0,-0.0371,-0.0423,-0.0483,-0.0494,-0.0513,-0.0507,-0.0491,-0.0421,-0.0403,-0.0302,-0.0279,-0.0156,-0.0092,0.0011,0.0157,0.0158,0.0286,0.0304,0.0406,0.0409,0.0481,0.0489,0.0648,0.0383,0.0382,0.0382,0.0382,0,-0.0432,-0.0479,-0.0518,-0.0564,-0.0615,-0.0579,-0.0599,-0.0554,-0.0492,-0.0473,-0.0333,-0.0287,-0.01,0.0009,0.0128,0.0287,0.0268,0.0405,0.0432,0.0465,0.0471,0.0619,0.0668,0.0385,0.0384,0.0384,0.0383,0,-0.0491,-0.0516,-0.0606,-0.0651,-0.0658,-0.069,-0.0686,-0.0698,-0.0616,-0.0585,-0.0553,-0.0385,-0.022,-0.004,0.0142,0.0253,0.0485,0.0451,0.0479,0.0508,0.073,0.0773,0.0938,0.1017,0.057,0.0572,0.0573,0,-0.0531,-0.0591,-0.0691,-0.0745,-0.0767,-0.08,-0.0825,-0.0767,-0.0769,-0.0642,-0.0634,-0.0452,-0.0303,-0.0011,0.0226,0.0451,0.0555,0.0605,0.0626,0.0756,0.0824,0.0851,0.0907,0.07,0.0703,0.0704,0.0706,0,-0.0631,-0.0669,-0.0749,-0.0866,-0.0919,-0.0972,-0.0988,-0.0999,-0.0911,-0.0837,-0.0705,-0.0564,-0.0242,0.0077,0.0378,0.0506,0.0717,0.0647,0.0784,0.0943,0.0982,0.1065,0.0636,0.0721,0.0719,0.0718,0.0717,0.0717,-0.0707,-0.0784,-0.0897,-0.0994,-0.1059,-0.1116,-0.1124,-0.11,-0.1054,-0.0883,-0.077,-0.0499,-0.0045,0.0416,0.0568,0.0911,0.0861,0.101,0.1052,0.1067,0.1152,0.0752,0.0864,0.0863,0.0862,0.0862,0.0861,0,-0.0808,-0.0895,-0.1012,-0.113,-0.121,-0.1207,-0.1217,-0.1159,-0.106,-0.0872,-0.0682,-0.017,0.0269,0.0668,0.1155,0.1319,0.1353,0.1386,0.1451,0.1487,0.1147,0.1165,0.1344,0.1344,0.1344,0.1344,0.1344,0.1344,-0.0874,-0.1015,-0.1078,-0.1242,-0.1296,-0.1322,-0.1302,-0.1156,-0.0991,-0.0616,-0.03,-0.0072,0.0469,0.1258,0.1689,0.1705,0.1843,0.1813,0.188,0.1662,0.163,0.16,0.1631,0.1906,0.1906,0.2223,0.2226,0.2229]}],[{"header":{"parameterUnit":"m.s-1","parameterCategory":2,"la1":30.2991,"la2":30.254,"lo1":-89.0895,"lo2":-89.0444,"dy":0.0017,"dx":0.0017,"nx":28,"ny":28,"refTime":"2023-10-02T09:00:00:Z","depth":"2","parameterNumber":2,"parameterNumberName":"U-component_of_CURRENTS"},"data":[0,0,0,0,0,0,0,0,0,0,0,0,0,0,0,0,0,0,0,0,0,0,0,0,0,0,0,0,0,0,0,0,0,0,0,0,0,0,0,0,0,0,0,0,0,0,0,0,0,0,0,0,0,0,0,0,0,0,-0.1776,-0.1778,0,-0.1854,-0.1854,-0.1854,-0.1832,-0.1831,-0.1831,-0.183,-0.1789,-0.1788,-0.1788,0,0,0,0,0,0,0,0,0,0,0,0,0,-0.158,-0.1583,-0.1776,-0.1778,-0.178,-0.1854,-0.1854,-0.1854,-0.1832,-0.1831,-0.183,-0.183,-0.1789,-0.1788,-0.1788,0,0,0,0,0,0,0,0,0,0,0,0,0,-0.1652,-0.1584,-0.1776,-0.1786,-0.1789,-0.1854,-0.1854,-0.1854,-0.1832,-0.1831,-0.183,-0.183,-0.1789,-0.1789,-0.1788,-0.1799,0,0,-0.1785,-0.1785,0,0,0,0,0,0,0,0,-0.1648,-0.1658,-0.1783,-0.1786,-0.1789,-0.1842,-0.177,-0.1833,-0.1832,-0.1804,-0.183,-0.1829,-0.1804,-0.1801,-0.1804,-0.1797,-0.1796,-0.1785,-0.1784,-0.1784,-0.1784,0,0,0,0,0,0,0,-0.1643,-0.1654,-0.1795,-0.1785,-0.1789,-0.1778,-0.1786,-0.1781,-0.1797,-0.1806,-0.1808,-0.1834,-0.1803,-0.1805,-0.1803,-0.1795,-0.1785,-0.1784,-0.1784,-0.1783,-0.1801,-0.1802,0,0,0,0,0,0,-0.1659,-0.165,-0.1793,-0.1799,-0.1727,-0.1783,-0.1792,-0.1817,-0.1799,-0.18,-0.1835,-0.1833,-0.1807,-0.1804,-0.1801,-0.1833,-0.1784,-0.1783,-0.1783,-0.18,-0.1802,-0.1803,0,0,0,0,0,0,-0.1654,-0.1671,-0.179,-0.1735,-0.175,-0.1789,-0.1816,-0.1819,-0.1825,-0.1825,-0.182,-0.184,-0.1806,-0.1802,-0.1804,-0.183,-0.1783,-0.1782,-0.1799,-0.1801,-0.1802,-0.1883,0,0,0,0,0,0,-0.1648,-0.1668,-0.168,-0.1736,-0.1755,-0.184,-0.1818,-0.1821,-0.1848,-0.1846,-0.1828,-0.1823,-0.1805,-0.1806,-0.1803,-0.1828,-0.1781,-0.1798,-0.18,-0.1802,-0.1879,-0.1887,-0.1894,0,0,0,0,0,-0.1641,-0.1675,-0.168,-0.1698,-0.1774,-0.1843,-0.185,-0.1866,-0.1849,-0.1863,-0.1846,-0.1823,-0.1816,-0.1806,-0.1803,-0.1828,-0.1797,-0.1799,-0.1802,-0.1876,-0.1886,-0.1894,0,0,0,0,0,0,-0.1601,-0.1679,-0.1685,-0.1742,-0.1792,-0.1844,-0.1867,-0.1872,-0.1871,-0.1861,-0.1837,-0.1833,-0.1841,-0.1824,-0.1814,-0.1838,-0.1802,-0.1804,-0.186,-0.1869,-0.1876,-0.1896,-0.1781,0,0,0,0,0,-0.16,-0.1643,-0.1712,-0.1758,-0.1785,-0.1821,-0.1847,-0.1862,-0.1881,-0.1879,-0.1867,-0.1853,-0.185,-0.185,-0.184,-0.1858,-0.1855,-0.187,-0.1878,-0.1884,-0.1898,-0.1924,-0.1936,-0.181,-0.181,-0.181,0,0,-0.1599,-0.1651,-0.1673,-0.1752,-0.1787,-0.1839,-0.1831,-0.1885,-0.1916,-0.1874,-0.1893,-0.1875,-0.1858,-0.1875,-0.1878,-0.1865,-0.1918,-0.1887,-0.1893,-0.1904,-0.1928,-0.1941,-0.1952,-0.1812,-0.1811,-0.1811,0,0,-0.1628,-0.1664,-0.1706,-0.1756,-0.1829,-0.1857,-0.1875,-0.1925,-0.1932,-0.1957,-0.1932,-0.1936,-0.1927,-0.1931,-0.1929,-0.1973,-0.1952,-0.1963,-0.2025,-0.205,-0.2061,-0.2071,-0.2083,-0.2093,-0.1973,-0.1973,-0.1973,0,-0.1621,-0.1689,-0.1729,-0.1789,-0.1839,-0.1867,-0.1923,-0.1944,-0.1983,-0.2007,-0.1971,-0.1986,-0.1959,-0.2003,-0.2009,-0.1992,-0.1997,-0.1994,-0.2062,-0.2071,-0.208,-0.209,-0.21,-0.1977,-0.1977,-0.1976,-0.1976,0,-0.1686,-0.1738,-0.1775,-0.1855,-0.1906,-0.1967,-0.2016,-0.2048,-0.2052,-0.2077,-0.2111,-0.208,-0.2092,-0.2084,-0.2054,-0.2109,-0.2089,-0.2065,-0.2043,-0.2098,-0.2104,-0.2113,-0.1983,-0.1982,-0.1981,-0.198,0,0,-0.1679,-0.1794,-0.1807,-0.1868,-0.1949,-0.2017,-0.2064,-0.2142,-0.2204,-0.2199,-0.2265,-0.2241,-0.2225,-0.222,-0.2189,-0.2208,-0.2255,-0.2164,-0.2163,-0.2183,-0.2309,-0.2175,-0.2171,-0.2245,-0.2248,-0.2249,-0.2289,0,-0.1716,-0.1834,-0.1877,-0.1995,-0.2065,-0.2116,-0.2176,-0.2245,-0.2279,-0.2345,-0.2326,-0.2357,-0.2277,-0.2282,-0.2288,-0.2263,-0.2283,-0.2246,-0.2246,-0.2246,-0.2127,-0.2179,-0.2029,-0.2042,-0.2298,-0.2299,-0.23,0,-0.1757,-0.1844,-0.1949,-0.2098,-0.2135,-0.2201,-0.2334,-0.2393,-0.2474,-0.2492,-0.2514,-0.2497,-0.2506,-0.2428,-0.2421,-0.2401,-0.2362,-0.234,-0.2341,-0.2195,-0.2129,-0.2028,-0.2048,-0.2315,-0.2314,-0.2313,-0.2312,0,-0.1756,-0.19,-0.1989,-0.2041,-0.2195,-0.2259,-0.2338,-0.244,-0.2502,-0.2583,-0.2614,-0.2633,-0.2609,-0.2592,-0.2466,-0.2473,-0.2447,-0.2455,-0.2309,-0.2299,-0.216,-0.2133,-0.2473,-0.2473,-0.2473,-0.2473,-0.2473,0,-0.1784,-0.187,-0.2005,-0.2074,-0.2213,-0.2301,-0.2441,-0.2514,-0.2604,-0.2658,-0.2678,-0.2666,-0.2645,-0.2594,-0.2527,-0.2404,-0.2482,-0.2332,-0.2306,-0.218,-0.2156,-0.2379,-0.2367,-0.2474,-0.2474,-0.2474,-0.2474,0,-0.177,-0.1843,-0.1978,-0.2152,-0.2216,-0.2315,-0.249,-0.2576,-0.2649,-0.2708,-0.2718,-0.2707,-0.2624,-0.2575,-0.2521,-0.2444,-0.2375,-0.2307,-0.2142,-0.2094,-0.2221,-0.2213,-0.2239,-0.2235,-0.2231,-0.2228,-0.2225,0,-0.177,-0.1832,-0.203,-0.2099,-0.218,-0.2338,-0.2435,-0.2573,-0.263,-0.2677,-0.2671,-0.2632,-0.2514,-0.2393,-0.2291,-0.2197,-0.2242,-0.2005,-0.1997,-0.2228,-0.22,-0.2198,-0.2195,-0.1858,-0.1853,-0.1848,-0.1845,0,-0.1777,-0.1836,-0.1939,-0.2071,-0.2185,-0.2332,-0.246,-0.2493,-0.259,-0.2581,-0.2475,-0.239,-0.23,-0.2096,-0.1996,-0.1918,-0.2022,-0.1913,-0.2209,-0.1917,-0.1865,-0.1838,-0.1849,-0.1806,-0.181,-0.1813,-0.1815,-0.1816,-0.1763,-0.1805,-0.1901,-0.2013,-0.2143,-0.2218,-0.2241,-0.2309,-0.2293,-0.2198,-0.2224,-0.2041,-0.2033,-0.1785,-0.167,-0.1614,-0.1762,-0.1704,-0.1721,-0.1741,-0.1666,-0.1607,-0.1487,-0.1489,-0.1491,-0.1492,-0.1494,0,-0.1698,-0.1734,-0.1833,-0.1926,-0.1974,-0.2097,-0.217,-0.2103,-0.195,-0.1937,-0.1806,-0.1587,-0.1466,-0.1467,-0.1333,-0.1305,-0.1325,-0.1248,-0.1288,-0.1326,-0.1361,-0.1269,-0.0984,-0.0983,-0.0981,-0.098,0,0,-0.1658,-0.167,-0.1695,-0.1697,-0.1759,-0.1736,-0.1711,-0.1616,-0.157,-0.137,-0.129,-0.1387,-0.1424,-0.121,-0.116,-0.1048,-0.1176,-0.0997,-0.1406,-0.1492,-0.1524,-0.1622,-0.1522,0,0,0,0,0]},{"header":{"parameterUnit":"m.s-1","parameterCategory":2,"la1":30.2991,"la2":30.254,"lo1":-89.0895,"lo2":-89.0444,"dy":0.0017,"dx":0.0017,"nx":28,"ny":28,"refTime":"2023-10-02T09:00:00:Z","depth":"2","parameterNumber":3,"parameterNumberName":"V-component_of_CURRENTS"},"data":[0,0,0,0,0,0,0,0,0,0,0,0,0,0,0,0,0,0,0,0,0,0,0,0,0,0,0,0,0,0,0,0,0,0,0,0,0,0,0,0,0,0,0,0,0,0,0,0,0,0,0,0,0,0,0,0,0,0,-0.0116,-0.0116,0,-0.0063,-0.0063,-0.0062,-0.0009,-0.0008,-0.0008,-0.0008,0.0106,0.0109,0.0112,0,0,0,0,0,0,0,0,0,0,0,0,0,-0.0068,-0.007,-0.0116,-0.0116,-0.0116,-0.0064,-0.0062,-0.0061,-0.0009,-0.0008,-0.0008,-0.0007,0.0106,0.0109,0.0112,0,0,0,0,0,0,0,0,0,0,0,0,0,-0.0056,-0.007,-0.0116,-0.0086,-0.0083,-0.0064,-0.0062,-0.0061,-0.0009,-0.0008,-0.0008,-0.0007,0.0104,0.0108,0.0112,0.0127,0,0,0.0125,0.0127,0,0,0,0,0,0,0,0,-0.0057,-0.0058,-0.0091,-0.0088,-0.0085,-0.0045,-0.0004,0.0003,-0.0009,-0.0033,-0.0008,-0.0007,0.0058,0.0066,0.008,0.0132,0.0137,0.0125,0.0128,0.0129,0.013,0,0,0,0,0,0,0,-0.0058,-0.0059,-0.0091,-0.009,-0.0087,-0.004,-0.0038,-0.0002,0.0013,-0.0031,-0.0028,-0.0028,0.0061,0.0075,0.0083,0.0139,0.0125,0.0129,0.0131,0.0133,0.0248,0.0249,0,0,0,0,0,0,-0.0079,-0.0061,-0.0093,-0.009,-0.0073,-0.0042,-0.0039,-0.0055,0.0012,0.0021,-0.0029,-0.0026,0.0068,0.0078,0.0087,0.0128,0.0129,0.0133,0.0135,0.0248,0.0248,0.0249,0,0,0,0,0,0,-0.0078,-0.0083,-0.0095,-0.0076,-0.0075,-0.0044,-0.0062,-0.0055,-0.0039,0.0012,0.0023,-0.0021,0.0069,0.0081,0.0125,0.0133,0.0135,0.0139,0.0247,0.0248,0.0249,0.0198,0,0,0,0,0,0,-0.0077,-0.0083,-0.0096,-0.0078,-0.0077,-0.009,-0.0062,-0.0054,-0.0042,-0.0038,0.0022,0.0033,0.007,0.0119,0.0129,0.0138,0.0142,0.0246,0.0247,0.0248,0.0199,0.0198,0.0196,0,0,0,0,0,-0.0076,-0.0102,-0.0098,-0.0101,-0.0098,-0.0091,-0.0086,-0.0058,-0.0042,-0.004,0.0007,0.0032,0.0134,0.0122,0.0134,0.0145,0.0246,0.0247,0.0248,0.02,0.0198,0.0196,0,0,0,0,0,0,-0.009,-0.0099,-0.0094,-0.0122,-0.011,-0.0084,-0.0082,-0.0063,-0.0024,-0.0018,0.0037,0.0051,0.0093,0.0127,0.0112,0.0184,0.0195,0.0199,0.0154,0.0153,0.0151,0.0134,0.0145,0,0,0,0,0,-0.0102,-0.0122,-0.0116,-0.0137,-0.0135,-0.0108,-0.01,-0.0085,-0.0053,-0.0036,0.0006,0.0058,0.0108,0.0135,0.0177,0.0213,0.0239,0.023,0.0228,0.0227,0.0223,0.0261,0.0261,0.0254,0.0254,0.0254,0,0,-0.0112,-0.012,-0.0131,-0.014,-0.0127,-0.0133,-0.0101,-0.0098,-0.0087,-0.0029,0.0001,0.0049,0.0115,0.0157,0.018,0.0187,0.0244,0.0228,0.0226,0.0223,0.0262,0.0263,0.0263,0.0255,0.0255,0.0254,0,0,-0.0146,-0.0152,-0.0179,-0.0175,-0.017,-0.0152,-0.0155,-0.0133,-0.0105,-0.0073,-0.0023,0.0027,0.0094,0.0146,0.0182,0.0198,0.0231,0.0213,0.0196,0.0232,0.0233,0.0233,0.0267,0.0272,0.0216,0.0216,0.0216,0,-0.0158,-0.0197,-0.0182,-0.0203,-0.0205,-0.0166,-0.0187,-0.0152,-0.0114,-0.0087,-0.0071,0.0039,0.0091,0.0158,0.0168,0.0193,0.0216,0.0194,0.0228,0.0229,0.0231,0.0266,0.0271,0.0214,0.0214,0.0214,0.0215,0,-0.0207,-0.0236,-0.025,-0.0266,-0.0259,-0.0272,-0.0234,-0.021,-0.0172,-0.0133,-0.0066,0.0007,0.0073,0.0103,0.0143,0.0188,0.0201,0.0215,0.0225,0.0228,0.0265,0.0271,0.0211,0.0212,0.0212,0.0213,0,0,-0.0244,-0.0281,-0.0286,-0.0312,-0.0297,-0.0305,-0.0273,-0.0238,-0.0219,-0.0153,-0.0117,-0.0017,0.0024,0.0068,0.0126,0.0167,0.0203,0.0191,0.0194,0.0212,0.0279,0.0301,0.031,0.0217,0.0218,0.0218,0.03,0,-0.0288,-0.0357,-0.0347,-0.0394,-0.0428,-0.0378,-0.0359,-0.0312,-0.0253,-0.0206,-0.0101,-0.0047,0.0013,0.0041,0.0094,0.0176,0.0217,0.0179,0.0286,0.0289,0.0297,0.0317,0.0305,0.0378,0.0307,0.0308,0.0309,0,-0.0333,-0.0383,-0.0447,-0.0481,-0.0487,-0.0491,-0.0457,-0.0432,-0.0334,-0.0286,-0.02,-0.0123,-0.0025,0.0009,0.0151,0.0121,0.0193,0.0254,0.0259,0.0299,0.0322,0.0366,0.0392,0.0319,0.0318,0.0318,0.0317,0,-0.0387,-0.0444,-0.0503,-0.0517,-0.0543,-0.054,-0.0527,-0.0454,-0.0434,-0.0331,-0.0304,-0.0176,-0.011,-0.0005,0.0142,0.0142,0.0283,0.0299,0.0387,0.039,0.0412,0.0415,0.0382,0.0382,0.0382,0.0382,0.0381,0,-0.044,-0.0489,-0.0536,-0.0582,-0.0637,-0.0608,-0.0626,-0.0583,-0.0519,-0.0491,-0.0354,-0.0298,-0.0113,0.0003,0.012,0.0278,0.027,0.0388,0.0415,0.0396,0.0396,0.037,0.0368,0.0385,0.0384,0.0384,0.0383,0,-0.049,-0.0517,-0.061,-0.0665,-0.0676,-0.0711,-0.0713,-0.072,-0.0637,-0.0593,-0.0562,-0.0386,-0.0213,-0.0038,0.015,0.0254,0.0394,0.0445,0.0412,0.0433,0.0481,0.0475,0.0557,0.0558,0.056,0.0561,0.0561,0,-0.0525,-0.0583,-0.0693,-0.0747,-0.0774,-0.0813,-0.0841,-0.0789,-0.0783,-0.0639,-0.0625,-0.0434,-0.0276,0.0012,0.0224,0.0437,0.0432,0.0528,0.0533,0.0483,0.05,0.0492,0.0485,0.0546,0.0547,0.0548,0.0548,0,-0.0615,-0.0655,-0.0738,-0.0854,-0.091,-0.0973,-0.0991,-0.0995,-0.0904,-0.0816,-0.066,-0.0511,-0.0208,0.0064,0.033,0.0444,0.0496,0.0547,0.0512,0.0498,0.0478,0.0493,0.0486,0.0553,0.0553,0.0552,0.0552,0.0552,-0.0685,-0.0758,-0.0866,-0.0959,-0.1033,-0.1094,-0.1098,-0.1072,-0.1011,-0.082,-0.0701,-0.0435,-0.0182,0.0232,0.0412,0.0571,0.0572,0.0616,0.0612,0.0608,0.0587,0.057,0.0658,0.0658,0.0658,0.0658,0.0658,0,-0.0771,-0.0844,-0.0957,-0.1066,-0.1139,-0.1159,-0.1173,-0.1109,-0.0983,-0.0811,-0.0606,-0.0299,-0.0005,0.0232,0.0505,0.0665,0.0644,0.0672,0.0628,0.0622,0.0618,0.0595,0.0669,0.0669,0.067,0.067,0,0,-0.0826,-0.0942,-0.0994,-0.1126,-0.1183,-0.1219,-0.1201,-0.1061,-0.0915,-0.0674,-0.048,-0.0258,0.0024,0.022,0.0425,0.056,0.0541,0.0559,0.0536,0.0457,0.045,0.0577,0.0534,0,0,0,0,0]}],[{"header":{"parameterUnit":"m.s-1","parameterCategory":2,"la1":30.2991,"la2":30.254,"lo1":-89.0895,"lo2":-89.0444,"dy":0.0017,"dx":0.0017,"nx":28,"ny":28,"refTime":"2023-10-02T09:00:00:Z","depth":"4","parameterNumber":2,"parameterNumberName":"U-component_of_CURRENTS"},"data":[0,0,0,0,0,0,0,0,0,0,0,0,0,0,0,0,0,0,0,0,0,0,0,0,0,0,0,0,0,0,0,0,0,0,0,0,0,0,0,0,0,0,0,0,0,0,0,0,0,0,0,0,0,0,0,0,0,0,-0.0718,-0.0716,0,-0.0685,-0.0686,-0.0687,-0.0741,-0.0742,-0.0742,-0.0742,-0.0855,-0.0858,-0.0861,0,0,0,0,0,0,0,0,0,0,0,0,0,-0.0794,-0.0794,-0.0718,-0.0716,-0.0714,-0.0685,-0.0686,-0.0687,-0.0741,-0.0742,-0.0742,-0.0742,-0.0854,-0.0858,-0.0861,0,0,0,0,0,0,0,0,0,0,0,0,0,-0.0778,-0.0794,-0.0718,-0.0725,-0.0724,-0.0685,-0.0686,-0.0688,-0.0741,-0.0742,-0.0742,-0.0742,-0.0853,-0.0857,-0.0861,-0.0878,0,0,-0.0874,-0.0876,0,0,0,0,0,0,0,0,-0.0779,-0.0777,-0.0726,-0.0724,-0.0723,-0.0703,-0.0753,-0.0753,-0.0741,-0.0753,-0.0742,-0.0743,-0.0806,-0.0814,-0.0829,-0.0883,-0.0888,-0.0874,-0.0877,-0.0878,-0.088,0,0,0,0,0,0,0,-0.078,-0.0778,-0.0723,-0.0723,-0.0721,-0.0716,-0.0717,-0.0754,-0.0794,-0.0752,-0.0751,-0.072,-0.0809,-0.0825,-0.0833,-0.089,-0.0874,-0.0878,-0.088,-0.0882,-0.1041,-0.1043,0,0,0,0,0,0,-0.075,-0.078,-0.0723,-0.072,-0.0733,-0.0714,-0.0715,-0.0723,-0.079,-0.0794,-0.072,-0.0722,-0.0818,-0.0828,-0.0837,-0.0924,-0.0878,-0.0882,-0.0885,-0.1039,-0.1042,-0.1043,0,0,0,0,0,0,-0.0753,-0.0748,-0.0724,-0.0733,-0.0727,-0.071,-0.072,-0.0721,-0.0746,-0.0761,-0.0772,-0.0741,-0.0819,-0.0831,-0.0902,-0.0926,-0.0884,-0.0888,-0.1037,-0.104,-0.1043,-0.1057,0,0,0,0,0,0,-0.0756,-0.075,-0.0758,-0.0732,-0.0725,-0.0707,-0.0717,-0.072,-0.0717,-0.0721,-0.0782,-0.0792,-0.082,-0.0896,-0.0906,-0.0931,-0.0891,-0.1035,-0.1039,-0.1042,-0.1054,-0.106,-0.1065,0,0,0,0,0,-0.076,-0.0754,-0.076,-0.0751,-0.0734,-0.0705,-0.0705,-0.0704,-0.0717,-0.0731,-0.0789,-0.0791,-0.0924,-0.0901,-0.0912,-0.0939,-0.1034,-0.1038,-0.1041,-0.1052,-0.1059,-0.1064,0,0,0,0,0,0,-0.0783,-0.0756,-0.0763,-0.0749,-0.0731,-0.0708,-0.0699,-0.0707,-0.0762,-0.077,-0.0818,-0.0833,-0.0898,-0.0922,-0.0896,-0.0996,-0.0977,-0.0983,-0.0981,-0.0988,-0.0993,-0.1002,-0.0895,0,0,0,0,0,-0.0789,-0.0792,-0.0758,-0.075,-0.0736,-0.0727,-0.0717,-0.0713,-0.0736,-0.076,-0.0812,-0.0868,-0.0921,-0.0957,-0.0999,-0.106,-0.1082,-0.1085,-0.109,-0.1094,-0.1111,-0.12,-0.1215,-0.1057,-0.1056,-0.1056,0,0,-0.0791,-0.0775,-0.0776,-0.0756,-0.0743,-0.0727,-0.0728,-0.0702,-0.073,-0.0764,-0.0846,-0.0882,-0.0939,-0.1007,-0.1039,-0.1034,-0.1139,-0.1099,-0.1102,-0.1117,-0.1206,-0.1221,-0.1235,-0.1059,-0.1059,-0.1058,0,0,-0.0758,-0.0787,-0.0758,-0.0754,-0.0713,-0.0721,-0.0715,-0.0711,-0.0758,-0.0815,-0.0855,-0.0918,-0.0996,-0.1053,-0.1088,-0.1149,-0.1156,-0.1154,-0.1199,-0.1285,-0.1299,-0.1311,-0.1304,-0.1316,-0.1166,-0.1166,-0.1166,0,-0.0755,-0.0735,-0.0745,-0.0713,-0.0724,-0.0721,-0.0713,-0.0748,-0.0784,-0.0862,-0.0843,-0.1004,-0.1023,-0.1144,-0.115,-0.1161,-0.1184,-0.1166,-0.1291,-0.1305,-0.1317,-0.1308,-0.1321,-0.1167,-0.1167,-0.1167,-0.1167,0,-0.07,-0.0691,-0.0673,-0.0665,-0.069,-0.0675,-0.0717,-0.0784,-0.0839,-0.0889,-0.1023,-0.1063,-0.117,-0.1171,-0.1171,-0.1282,-0.1254,-0.1277,-0.1271,-0.1334,-0.1319,-0.1333,-0.1169,-0.1168,-0.1168,-0.1168,0,0,-0.0689,-0.064,-0.0645,-0.0656,-0.0676,-0.0698,-0.0783,-0.0883,-0.0991,-0.1033,-0.1176,-0.1232,-0.1267,-0.1308,-0.1324,-0.1378,-0.1435,-0.1359,-0.1363,-0.1342,-0.157,-0.1451,-0.1453,-0.1491,-0.1495,-0.1498,-0.1502,0,-0.0647,-0.0575,-0.0609,-0.0631,-0.061,-0.072,-0.0825,-0.0936,-0.1049,-0.1189,-0.1259,-0.1377,-0.1318,-0.1377,-0.1417,-0.1452,-0.1482,-0.1428,-0.1521,-0.1522,-0.1404,-0.147,-0.151,-0.1512,-0.1515,-0.1517,-0.1519,0,-0.0614,-0.0563,-0.0551,-0.0643,-0.0666,-0.0735,-0.0976,-0.1056,-0.1255,-0.1352,-0.1473,-0.1527,-0.1612,-0.155,-0.1631,-0.1604,-0.1582,-0.1582,-0.1584,-0.1486,-0.1432,-0.1453,-0.1543,-0.1541,-0.154,-0.1538,-0.1536,0,-0.0606,-0.0582,-0.0592,-0.0608,-0.0684,-0.081,-0.091,-0.1126,-0.1244,-0.1468,-0.1546,-0.1686,-0.1708,-0.1774,-0.1727,-0.1711,-0.1784,-0.1775,-0.164,-0.1627,-0.1723,-0.171,-0.1837,-0.1837,-0.1837,-0.1837,-0.1837,0,-0.0591,-0.0608,-0.0601,-0.0601,-0.0708,-0.0814,-0.1015,-0.1151,-0.1354,-0.1448,-0.161,-0.1682,-0.1764,-0.1798,-0.1793,-0.1736,-0.1843,-0.1656,-0.1647,-0.1718,-0.1706,-0.1728,-0.1715,-0.1837,-0.1837,-0.1837,-0.1837,0,-0.0625,-0.0585,-0.0598,-0.066,-0.0691,-0.0803,-0.1009,-0.112,-0.1335,-0.1453,-0.1515,-0.1676,-0.173,-0.178,-0.1844,-0.1764,-0.1786,-0.1733,-0.1756,-0.1746,-0.1545,-0.1533,-0.1612,-0.1608,-0.1605,-0.1603,-0.1601,0,-0.0612,-0.0612,-0.0622,-0.0623,-0.0671,-0.0811,-0.0867,-0.1083,-0.1146,-0.1414,-0.1395,-0.1557,-0.1623,-0.1651,-0.1711,-0.1739,-0.1701,-0.1675,-0.1649,-0.1551,-0.1535,-0.1528,-0.152,-0.1596,-0.1595,-0.1594,-0.1593,0,-0.0619,-0.0659,-0.0671,-0.0625,-0.0667,-0.0707,-0.0783,-0.0848,-0.1042,-0.1184,-0.1328,-0.1459,-0.1484,-0.1577,-0.1586,-0.1603,-0.1705,-0.1643,-0.1649,-0.1624,-0.1533,-0.1518,-0.1514,-0.1583,-0.1584,-0.1585,-0.1586,0,-0.0656,-0.0675,-0.0663,-0.0668,-0.0678,-0.0643,-0.0696,-0.0752,-0.087,-0.1103,-0.1124,-0.134,-0.1447,-0.15,-0.1532,-0.1537,-0.151,-0.1456,-0.1471,-0.1483,-0.144,-0.1305,-0.1293,0,0,0,0,0,-0.0654,-0.0664,-0.0666,-0.0653,-0.0668,-0.0639,-0.064,-0.068,-0.08,-0.085,-0.1023,-0.1089,-0.1244,-0.1361,-0.1339,-0.1423,-0.1476,-0.1385,-0.1411,-0.1525,-0.1537,-0.1499,0,0,0,0,0,0,-0.0643,-0.0662,-0.0663,-0.0659,-0.0638,-0.061,-0.0608,-0.0644,-0.0685,-0.0832,-0.0924,-0.1017,-0.1166,-0.1267,-0.1334,-0.1347,-0.1335,-0.148,-0.1476,-0.1518,-0.1529,-0.1539,-0.1504,0,0,0,0,0]},{"header":{"parameterUnit":"m.s-1","parameterCategory":2,"la1":30.2991,"la2":30.254,"lo1":-89.0895,"lo2":-89.0444,"dy":0.0017,"dx":0.0017,"nx":28,"ny":28,"refTime":"2023-10-02T09:00:00:Z","depth":"4","parameterNumber":3,"parameterNumberName":"V-component_of_CURRENTS"},"data":[0,0,0,0,0,0,0,0,0,0,0,0,0,0,0,0,0,0,0,0,0,0,0,0,0,0,0,0,0,0,0,0,0,0,0,0,0,0,0,0,0,0,0,0,0,0,0,0,0,0,0,0,0,0,0,0,0,0,-0.0059,-0.0059,0,-0.0001,-0.0001,-0.0,0.0028,0.0028,0.0028,0.0028,0.0072,0.0073,0.0074,0,0,0,0,0,0,0,0,0,0,0,0,0,-0.0047,-0.0048,-0.0059,-0.0059,-0.0058,-0.0002,-0.0001,0.0,0.0028,0.0028,0.0028,0.0028,0.0072,0.0073,0.0075,0,0,0,0,0,0,0,0,0,0,0,0,0,-0.0027,-0.0049,-0.0059,-0.0037,-0.0035,-0.0002,-0.0001,0.0,0.0028,0.0028,0.0028,0.0028,0.0071,0.0073,0.0075,0.0086,0,0,0.008,0.0081,0,0,0,0,0,0,0,0,-0.0029,-0.0028,-0.0041,-0.0039,-0.0036,0.0006,0.002,0.0028,0.0028,0.0005,0.0028,0.0028,0.0049,0.0052,0.0064,0.0088,0.009,0.008,0.0081,0.0082,0.0083,0,0,0,0,0,0,0,-0.003,-0.003,-0.0036,-0.004,-0.0037,0.0004,0.0005,0.0022,0.0026,0.0007,0.0009,0.0015,0.005,0.0062,0.0065,0.0091,0.008,0.0082,0.0083,0.0084,0.0145,0.0145,0,0,0,0,0,0,-0.0043,-0.0032,-0.0038,-0.0035,-0.0032,0.0003,0.0005,-0.0007,0.0026,0.0031,0.0015,0.0016,0.0059,0.0063,0.0066,0.0097,0.0082,0.0084,0.0085,0.0144,0.0145,0.0145,0,0,0,0,0,0,-0.0043,-0.0045,-0.004,-0.003,-0.0027,0.0002,-0.0011,-0.0006,0.001,0.0033,0.0037,0.0026,0.0059,0.0064,0.0089,0.0098,0.0085,0.0086,0.0143,0.0144,0.0145,0.0149,0,0,0,0,0,0,-0.0044,-0.0046,-0.0055,-0.0032,-0.0028,-0.0023,-0.0011,-0.0005,0.0014,0.0016,0.0043,0.0047,0.0059,0.0086,0.0091,0.0101,0.0088,0.0143,0.0144,0.0145,0.0148,0.015,0.0151,0,0,0,0,0,-0.0044,-0.0057,-0.0056,-0.0056,-0.0044,-0.0023,-0.0017,0.0005,0.0014,0.002,0.0044,0.0047,0.0096,0.0088,0.0093,0.0104,0.0142,0.0144,0.0145,0.0147,0.0149,0.0151,0,0,0,0,0,0,-0.0055,-0.0055,-0.0053,-0.0066,-0.0047,-0.0018,-0.0007,0.0007,0.0031,0.0037,0.0056,0.0061,0.0085,0.0095,0.0086,0.0125,0.0119,0.0121,0.0119,0.0121,0.0123,0.0102,0.0089,0,0,0,0,0,-0.0064,-0.0076,-0.0061,-0.007,-0.006,-0.0033,-0.0019,-0.0004,0.002,0.0031,0.005,0.0072,0.0094,0.0107,0.0124,0.0148,0.0159,0.0158,0.0159,0.0161,0.0148,0.0193,0.0198,0.0149,0.0149,0.0149,0,0,-0.0071,-0.0071,-0.0078,-0.0072,-0.0053,-0.0045,-0.0025,-0.0003,0.0007,0.0032,0.0053,0.0077,0.01,0.0126,0.0138,0.0137,0.0179,0.0162,0.0163,0.0149,0.0195,0.02,0.0204,0.015,0.015,0.015,0,0,-0.0073,-0.0089,-0.0088,-0.008,-0.0055,-0.0045,-0.0041,-0.001,0.0008,0.0039,0.0054,0.0085,0.012,0.0137,0.0152,0.0172,0.0183,0.0178,0.0174,0.0219,0.0224,0.0227,0.0241,0.0246,0.0183,0.0183,0.0183,0,-0.0078,-0.009,-0.0081,-0.0073,-0.0077,-0.005,-0.0049,-0.0024,0.0011,0.002,0.0047,0.01,0.0127,0.0149,0.0161,0.0176,0.0191,0.0166,0.0221,0.0225,0.0229,0.0242,0.0247,0.0183,0.0183,0.0183,0.0183,0,-0.0076,-0.0087,-0.0084,-0.0082,-0.0079,-0.0077,-0.0053,-0.0041,-0.0013,0.0013,0.0051,0.0102,0.0128,0.015,0.0167,0.0199,0.0197,0.0216,0.0215,0.0234,0.0246,0.0252,0.0184,0.0184,0.0183,0.0183,0,0,-0.0099,-0.0087,-0.009,-0.0106,-0.0093,-0.0102,-0.0083,-0.0073,-0.008,-0.0006,0.0004,0.0074,0.0103,0.012,0.015,0.0197,0.0248,0.0218,0.022,0.0226,0.0326,0.0317,0.0323,0.0282,0.0283,0.0284,0.0321,0,-0.0105,-0.0108,-0.0102,-0.013,-0.014,-0.0134,-0.0138,-0.0122,-0.0091,-0.0073,0.0008,0.0038,0.0092,0.011,0.0167,0.0231,0.0263,0.0234,0.0309,0.031,0.0298,0.033,0.0288,0.0325,0.0326,0.0327,0.0328,0,-0.0106,-0.0122,-0.014,-0.0184,-0.019,-0.0207,-0.0242,-0.0231,-0.019,-0.0157,-0.0094,-0.0038,0.0048,0.0091,0.0219,0.0201,0.0252,0.0304,0.0308,0.0299,0.0312,0.0304,0.0338,0.0338,0.0337,0.0336,0.0335,0,-0.0134,-0.0157,-0.0188,-0.02,-0.0232,-0.0254,-0.0269,-0.0257,-0.0263,-0.02,-0.0186,-0.008,-0.0021,0.0088,0.0215,0.0222,0.0342,0.0368,0.0395,0.0394,0.0387,0.0382,0.0428,0.0428,0.0428,0.0428,0.0428,0,-0.015,-0.0183,-0.0213,-0.0234,-0.0309,-0.0302,-0.0357,-0.0348,-0.0332,-0.0322,-0.0229,-0.0187,-0.0015,0.008,0.0193,0.0317,0.0332,0.039,0.041,0.0386,0.0381,0.039,0.0385,0.0429,0.0429,0.0429,0.0428,0,-0.0174,-0.0175,-0.0241,-0.0297,-0.0316,-0.0373,-0.0419,-0.0441,-0.0418,-0.0395,-0.0366,-0.0259,-0.0106,0.0031,0.0202,0.0277,0.0402,0.0422,0.0361,0.0376,0.0423,0.0418,0.0474,0.0474,0.0474,0.0474,0.0474,0,-0.0183,-0.0209,-0.03,-0.0341,-0.0371,-0.0439,-0.0466,-0.0473,-0.0464,-0.042,-0.0384,-0.0277,-0.0178,0.0039,0.0191,0.0378,0.0395,0.0431,0.0454,0.0417,0.0431,0.0426,0.0421,0.0474,0.0474,0.0475,0.0475,0,-0.0234,-0.0269,-0.0326,-0.0398,-0.0448,-0.0499,-0.0513,-0.0527,-0.0492,-0.0493,-0.0389,-0.0276,-0.0135,0.0053,0.017,0.0313,0.0413,0.0434,0.0435,0.0456,0.0419,0.0431,0.0426,0.0475,0.0475,0.0475,0.0475,0,-0.0287,-0.0343,-0.0395,-0.0467,-0.051,-0.0506,-0.0535,-0.0499,-0.0499,-0.0432,-0.0395,-0.025,-0.0166,0.0016,0.0151,0.0272,0.0312,0.0344,0.035,0.0351,0.0313,0.0247,0.0267,0,0,0,0,0,-0.0339,-0.0379,-0.0446,-0.0496,-0.0524,-0.0534,-0.053,-0.0533,-0.051,-0.0439,-0.0418,-0.0273,-0.0082,0.0002,0.0126,0.0162,0.0332,0.0308,0.0372,0.0478,0.0477,0.0453,0,0,0,0,0,0,-0.0369,-0.043,-0.0456,-0.0486,-0.0507,-0.0514,-0.051,-0.0493,-0.044,-0.0415,-0.0308,-0.0264,-0.007,-0.0155,0.0119,0.0156,0.0209,0.0397,0.0399,0.0478,0.0478,0.0477,0.0452,0,0,0,0,0]}]]